SCP
0 0 0 0 0 0 0 0 0 0 0 0 0 0 0 0 0 0 0 0 0 0
0 0 0 0 0 0 0 0 0 0 0 0 0 0 0 0 0 0 0 0 0 0
0 0 0 0 0 0 0 0 0 0 0 0 0 0 0 0 0 0 0 0 0 0
0 0 0 0 0 0 0 0 0 0 0 0 0 0 0 0 0 0 0 0 0 0
0 0 0 0 0 0 0 0 0 0 0 0 0 0 0 0 0 0 0 0 0 0
0 0 0 0 0 0 0 0 0 0 0 0 0 0 0 0 0 0 0 0 0 0
0 0 0 0 0 0 0 0 0 0 0 0 0 0 0 0 0 0 0 0 0 0
0 0 0 0 0 0 0 0 0 0 0 0 0 0 0 0 0 0 0 0 0 0
0 0 0 0 0 0 0 0 0 0 0 0 0 0 0 0 0 0 0 0 0 0
0 0 0 0 0 0 0 0 0 0 0 0 0 0 0 0 0 0 0 0 0 0
0 0 0 0 0 0 0 0 0 0 0 0 0 0 0 0 0 0 0 0 0 0
0 0 0 0 0 0 0 0 0 0 0 0 0 0 0 0 0 0 0 0 0 0
0 0 0 0 0 0 0 0 0 0 0 0 0 0 0 0 0 0 0 0 0 0
0 0 0 0 0 0 0 0 0 0 0 0 0 0 0 0 0 0 0 0 0 0
Wind_Speed_500mb
31 34 32 29 30 25 30 27 23 30 36 36 38 41 41 45 50 46 47 44 45 41
14 13 9 10 15 22 27 28 37 39 41 37 36 36 43 47 44 42 47 48 48 42
13 11 10 10 16 21 25 27 27 27 23 22 23 23 24 27 35 41 46 50 48 45
26 25 21 20 21 20 15 14 10 7 7 8 11 17 25 24 21 21 23 41 48 50
32 28 21 17 13 11 12 12 8 4 4 6 11 15 18 19 23 21 26 31 40 54
19 14 12 10 6 4 6 8 9 9 9 11 13 14 15 18 20 21 21 25 29 34
16 11 7 5 4 6 9 11 13 16 20 23 26 27 30 33 34 34 36 38 39 40
12 9 7 7 10 13 18 22 25 29 32 35 37 39 41 43 45 46 47 48 49 50
10 12 14 18 22 27 32 37 39 41 42 44 45 47 51 54 56 56 59 62 62 62
10 15 21 26 31 35 39 41 42 44 47 49 50 53 57 59 63 64 64 65 65 65
15 22 28 34 39 41 42 43 47 50 52 55 55 57 59 61 59 56 54 54 55 57
20 26 32 37 42 46 51 55 60 63 64 63 57 52 49 47 45 43 43 46 48 49
33 40 46 51 56 61 64 69 70 67 61 54 46 38 35 36 39 43 47 47 46 47
45 52 59 64 66 66 63 59 53 49 39 31 28 25 26 30 35 40 48 52 54 53
Wind_Direction_500mb
231 244 261 271 269 274 276 277 279 290 290 293 294 289 278 279 277 274 269 260 270 273
226 254 288 306 298 299 296 285 281 288 283 283 286 284 274 266 276 272 268 266 272 276
94 63 14 349 332 318 304 296 292 286 287 281 277 280 278 284 290 280 271 272 266 263
102 94 91 89 85 79 57 42 31 11 342 311 291 285 286 280 296 299 283 268 268 253
109 107 107 106 89 58 29 26 9 358 331 314 303 294 293 290 291 297 284 270 258 259
112 110 107 97 85 26 18 6 356 352 345 331 324 317 309 304 302 299 292 286 281 273
112 110 103 75 25 354 344 336 327 316 311 308 305 300 295 291 289 287 287 286 282 280
76 59 39 6 339 330 321 315 310 307 305 305 303 299 295 293 292 290 288 286 285 283
18 355 341 337 331 326 321 316 312 308 306 304 303 300 298 296 294 293 292 291 289 287
356 346 343 340 334 328 323 318 314 311 307 303 301 300 296 293 290 290 290 290 289 288
339 335 331 328 326 325 323 320 319 318 314 309 307 303 297 294 294 294 296 298 298 297
324 321 319 318 317 316 314 312 311 312 311 310 307 303 302 303 304 304 301 298 298 299
319 318 315 314 310 308 306 305 304 304 304 305 307 308 308 304 298 300 302 304 304 300
310 310 308 307 307 304 303 303 302 302 304 306 310 300 295 298 304 308 308 310 311 310
Wind_Speed_850mb
31 34 32 29 30 25 30 27 23 30 36 36 38 41 41 45 50 46 47 44 45 41
14 13 9 10 15 22 27 28 37 39 41 37 36 36 43 47 44 42 47 48 48 42
13 11 10 10 16 21 25 27 27 27 23 22 23 23 24 27 35 41 46 50 48 45
26 25 21 20 21 20 15 14 10 7 7 8 11 17 25 24 21 21 23 41 48 50
32 28 21 17 13 11 12 12 8 4 4 6 11 15 18 19 23 21 26 31 40 54
19 14 12 10 6 4 6 8 9 9 9 11 13 14 15 18 20 21 21 25 29 34
16 11 7 5 4 6 9 11 13 16 20 23 26 27 30 33 34 34 36 38 39 40
12 9 7 7 10 13 18 22 25 29 32 35 37 39 41 43 45 46 47 48 49 50
10 12 14 18 22 27 32 37 39 41 42 44 45 47 51 54 56 56 59 62 62 62
10 15 21 26 31 35 39 41 42 44 47 49 50 53 57 59 63 64 64 65 65 65
15 22 28 34 39 41 42 43 47 50 52 55 55 57 59 61 59 56 54 54 55 57
20 26 32 37 42 46 51 55 60 63 64 63 57 52 49 47 45 43 43 46 48 49
33 40 46 51 56 61 64 69 70 67 61 54 46 38 35 36 39 43 47 47 46 47
45 52 59 64 66 66 63 59 53 49 39 31 28 25 26 30 35 40 48 52 54 53
Wind_Direction_850mb
231 244 261 271 269 274 276 277 279 290 290 293 294 289 278 279 277 274 269 260 270 273
226 254 288 306 298 299 296 285 281 288 283 283 286 284 274 266 276 272 268 266 272 276
94 63 14 349 332 318 304 296 292 286 287 281 277 280 278 284 290 280 271 272 266 263
102 94 91 89 85 79 57 42 31 11 342 311 291 285 286 280 296 299 283 268 268 253
109 107 107 106 89 58 29 26 9 358 331 314 303 294 293 290 291 297 284 270 258 259
112 110 107 97 85 26 18 6 356 352 345 331 324 317 309 304 302 299 292 286 281 273
112 110 103 75 25 354 344 336 327 316 311 308 305 300 295 291 289 287 287 286 282 280
76 59 39 6 339 330 321 315 310 307 305 305 303 299 295 293 292 290 288 286 285 283
18 355 341 337 331 326 321 316 312 308 306 304 303 300 298 296 294 293 292 291 289 287
356 346 343 340 334 328 323 318 314 311 307 303 301 300 296 293 290 290 290 290 289 288
339 335 331 328 326 325 323 320 319 318 314 309 307 303 297 294 294 294 296 298 298 297
324 321 319 318 317 316 314 312 311 312 311 310 307 303 302 303 304 304 301 298 298 299
319 318 315 314 310 308 306 305 304 304 304 305 307 308 308 304 298 300 302 304 304 300
310 310 308 307 307 304 303 303 302 302 304 306 310 300 295 298 304 308 308 310 311 310